DateTimeUTC,F1_A11,F1_S11,BsB_S11,BsG_S11,BsR_S11,BbsB_S11,BbsG_S11,BbsR_S11,BaB_A11,BaG_A11,BaR_A11,Tu_S11,T_S11,Uu_S11,U_S11,P_S11,T1_A11
2021-06-09T07:00:00Z,00000200,20000000,,,,,,,-000.08,-000.70,-000.10,17.1,23.8,07.8,05.2,0667.6,30.9
2021-06-09T07:01:00Z,00000200,20000000,,,,,,,-000.18,-000.26,-000.06,17.1,23.8,07.6,05.0,0667.6,30.9
2021-06-09T07:02:00Z,00000200,20000000,,,,,,,-000.22,0000.01,-000.36,17.1,23.8,07.6,05.0,0667.6,30.9
2021-06-09T07:03:00Z,00000200,60000000,,,,,,,0001.19,0001.38,0001.42,17.1,23.8,07.6,05.0,0667.6,30.9
2021-06-09T07:04:00Z,00000200,40000000,0001.15,0000.62,0000.30,-000.14,-000.00,0000.12,0000.35,0000.36,0000.14,17.2,23.7,08.1,05.4,0668.5,30.9
2021-06-09T07:05:00Z,00000200,00000000,0001.58,0000.66,0000.56,0000.17,0000.14,0000.22,0000.09,-000.05,-000.15,17.3,23.6,08.0,05.4,0668.6,30.9
2021-06-09T07:06:00Z,00000200,00000000,0000.92,0000.55,0000.77,0000.04,0000.01,-000.25,0000.66,0000.02,0000.17,17.3,23.6,08.0,05.4,0668.6,30.9
2021-06-09T07:07:00Z,00000200,00000000,0001.32,0000.67,0000.45,-000.53,0000.16,0000.10,-000.12,0000.16,-000.06,17.3,23.6,07.7,05.2,0668.6,30.9
2021-06-09T07:08:00Z,00000200,00000000,0000.98,0000.52,0000.45,0000.58,0000.01,0000.06,-000.19,-000.02,0000.22,17.3,23.6,07.7,05.2,0668.6,30.9
2021-06-09T07:09:00Z,00000200,00000000,0000.46,0000.50,0000.36,0000.19,0000.10,0000.32,0000.96,0001.13,0000.56,17.3,23.6,07.9,05.3,0668.6,30.9
2021-06-09T07:10:00Z,00000200,00000000,0001.56,0000.70,0000.49,0000.21,-000.01,0000.44,-000.28,-000.29,0000.07,17.3,23.6,08.0,05.4,0668.6,30.9
2021-06-09T07:11:00Z,00000200,00000000,0001.16,0000.76,0000.32,-000.57,0000.10,0000.29,0000.59,0000.13,0000.17,17.3,23.6,07.8,05.3,0668.6,31.0
2021-06-09T07:12:00Z,00000200,00000000,0001.13,0000.56,0000.74,-000.09,0000.10,0000.01,0000.11,0000.17,0000.23,17.3,23.6,07.7,05.2,0668.6,31.0
2021-06-09T07:13:00Z,00000200,00000000,0000.78,0000.62,0000.27,0000.02,0000.13,-000.07,0000.37,0000.75,0000.15,17.3,23.6,07.8,05.3,0668.5,30.9
2021-06-09T07:14:00Z,00000200,00000000,0001.57,0000.74,0000.28,0000.01,-000.11,0000.14,0000.38,0000.24,0000.32,17.3,23.6,07.9,05.4,0668.5,30.9
2021-06-09T07:15:00Z,00000200,00000000,0000.72,0000.75,0000.29,-000.26,0000.15,0000.01,0000.57,0000.57,0000.59,17.3,23.6,08.0,05.5,0668.5,30.9
2021-06-09T07:16:00Z,00000200,00000000,0001.29,0000.72,0000.34,0000.22,0000.06,-000.22,-000.17,-000.26,-000.61,17.3,23.6,08.2,05.6,0668.5,30.9
2021-06-09T07:17:00Z,00000200,00000000,0000.96,0000.56,0000.46,-000.03,0000.06,0000.18,0000.78,0000.45,0000.46,17.3,23.6,07.8,05.3,0668.5,30.9
2021-06-09T07:18:00Z,00000200,00000000,0000.83,0000.77,0000.06,0000.09,-000.08,0000.11,-000.54,0000.03,0000.24,17.3,23.6,08.1,05.5,0668.5,30.9
2021-06-09T07:19:00Z,00000200,00000000,0001.41,0000.42,0000.58,0000.56,-000.04,0000.17,0000.26,0000.03,0000.24,17.4,23.6,08.0,05.4,0668.5,30.9
2021-06-09T07:20:00Z,00000200,00000000,0000.71,0000.75,0000.10,0000.23,0000.11,0000.01,0000.23,0000.40,-000.25,17.4,23.6,07.7,05.3,0668.5,30.9
2021-06-09T07:21:00Z,00000200,00000000,0001.00,0000.81,0000.26,-000.12,0000.24,0000.23,0000.71,0000.49,0000.46,17.4,23.6,07.9,05.4,0668.5,30.9
2021-06-09T07:22:00Z,00000200,00000000,0001.47,0000.53,0000.22,0000.13,0000.12,0000.07,0000.41,0000.02,0000.21,17.4,23.6,07.9,05.4,0668.5,30.9
2021-06-09T07:23:00Z,00000200,00000000,0001.33,0000.64,0000.56,0000.53,0000.31,0000.32,-000.23,0000.35,-000.11,17.4,23.6,07.7,05.3,0668.5,30.9
2021-06-09T07:24:00Z,00000200,00000000,0001.47,0000.49,0000.40,-000.65,-000.08,0000.07,-000.03,-000.70,0000.00,17.4,23.6,07.7,05.2,0668.5,30.9
2021-06-09T07:25:00Z,00000200,00000000,0001.17,0000.74,0000.37,-000.02,0000.21,0000.03,0000.50,0000.69,0000.52,17.4,23.6,07.6,05.2,0668.5,30.9
2021-06-09T07:26:00Z,00000200,00000000,0001.22,0000.58,0000.38,0000.02,0000.02,0000.19,0000.45,0000.69,0000.18,17.4,23.7,07.7,05.3,0668.5,30.9
2021-06-09T07:27:00Z,00000200,00000000,0001.22,0000.69,0000.54,-000.24,0000.20,-000.01,0000.07,-000.12,0000.33,17.4,23.7,07.8,05.3,0668.4,31.0
2021-06-09T07:28:00Z,00000200,00000000,0001.20,0000.56,0000.58,0000.22,0000.27,-000.22,0000.19,0000.47,0000.36,17.4,23.7,07.7,05.3,0668.4,30.9
2021-06-09T07:29:00Z,00000200,00000000,0000.97,0000.56,0000.29,-000.08,-000.10,0000.03,0000.43,0000.28,-000.18,17.5,23.7,07.8,05.4,0668.4,30.9
2021-06-09T07:30:00Z,00000200,00000000,0001.64,0000.69,0000.43,0000.85,0000.16,0000.16,0000.69,0000.31,0000.21,17.5,23.7,07.9,05.4,0668.4,30.9
2021-06-09T07:31:00Z,00000200,00000000,0001.35,0000.85,0000.11,-000.29,0000.12,-000.01,0000.12,-000.09,0000.14,17.5,23.7,07.8,05.4,0668.3,30.9
2021-06-09T07:32:00Z,00000200,00000000,0001.37,0000.72,0000.18,0000.11,0000.27,0000.20,0000.25,0000.28,0000.37,17.5,23.7,07.8,05.3,0668.3,30.9
2021-06-09T07:33:00Z,00000200,00000000,0000.71,0000.58,0000.64,0000.10,0000.18,0000.04,0000.16,0000.67,0000.03,17.5,23.7,07.8,05.3,0668.3,30.9
2021-06-09T07:34:00Z,00000200,00000000,0000.21,0000.57,0000.40,-000.51,0000.07,0000.11,0000.14,-000.00,0000.44,17.5,23.7,07.8,05.3,0668.3,31.0
2021-06-09T07:35:00Z,00000200,00000000,0001.21,0000.79,0000.36,0000.55,-000.05,0000.05,0000.51,0000.44,-000.37,17.5,23.7,07.9,05.4,0668.3,30.9
2021-06-09T07:36:00Z,00000200,00000000,0001.15,0000.44,0000.20,-000.08,-000.09,0000.06,0000.29,0000.15,0000.69,17.5,23.7,07.8,05.3,0668.3,30.9
2021-06-09T07:37:00Z,00000200,00000000,0001.61,0000.96,0000.23,-000.47,0000.08,0000.02,0000.12,0000.05,0000.29,17.6,23.7,07.8,05.3,0668.3,30.9
2021-06-09T07:38:00Z,00000200,00000000,0000.89,0000.68,0000.24,-000.04,-000.10,-000.22,0000.20,0000.59,0000.21,17.6,23.8,07.7,05.3,0668.3,30.9
2021-06-09T07:39:00Z,00000200,00000000,0001.30,0000.56,0000.25,0000.09,0000.21,-000.31,0000.60,0000.54,0000.38,17.6,23.8,07.8,05.3,0668.3,30.9
2021-06-09T07:40:00Z,00000200,00000000,0001.14,0000.82,0000.33,-000.29,0000.31,-000.00,-000.06,-000.00,-000.36,17.6,23.8,07.9,05.4,0668.3,30.9
2021-06-09T07:41:00Z,00000200,00000000,0000.92,0000.57,0000.45,0000.12,0000.04,0000.15,0000.53,-000.05,0000.49,17.6,23.8,07.7,05.3,0668.3,31.0
2021-06-09T07:42:00Z,00000200,00000000,0000.95,0000.54,0000.56,0000.39,-000.01,0000.59,0000.18,0000.30,0000.05,17.6,23.8,07.7,05.3,0668.3,30.9
2021-06-09T07:43:00Z,00000200,00000000,0001.41,0000.88,0000.26,0000.23,-000.23,-000.01,0000.29,0000.29,0000.25,17.6,23.8,07.7,05.3,0668.3,31.0
2021-06-09T07:44:00Z,00000200,00000000,0000.99,0000.78,0000.59,0000.23,0000.01,-000.18,0000.25,0000.03,0000.32,17.6,23.8,07.7,05.3,0668.3,31.0
2021-06-09T07:45:00Z,00000200,00000000,0001.25,0000.58,0000.29,0000.02,0000.10,0000.02,0000.11,0000.28,0000.27,17.6,23.8,07.7,05.2,0668.3,31.0
2021-06-09T07:46:00Z,00000200,00000000,0000.78,0000.44,0000.18,0000.30,0000.04,0000.08,0000.28,0000.23,-000.03,17.6,23.8,07.5,05.1,0668.3,31.0
2021-06-09T07:47:00Z,00000200,00000000,0001.07,0000.72,0000.57,0000.15,0000.05,0000.00,-000.07,-000.11,0000.23,17.7,23.8,07.4,05.1,0668.3,31.0
2021-06-09T07:48:00Z,00000200,00000000,0001.34,0000.69,0000.47,-000.14,0000.06,0000.31,0000.46,0000.75,0000.11,17.7,23.9,07.3,05.0,0668.3,31.0
2021-06-09T07:49:00Z,00000200,00000000,0000.96,0000.62,0000.35,-000.12,0000.17,0000.19,0000.28,0000.21,0000.34,17.7,23.8,07.6,05.2,0668.3,31.0
2021-06-09T07:50:00Z,00000200,00000000,0001.17,0000.65,0000.36,0000.26,0000.07,-000.23,0000.65,0000.40,0000.34,17.7,23.9,07.6,05.2,0668.3,31.0
2021-06-09T07:51:00Z,00000200,00000000,0001.04,0000.62,0000.52,-000.21,-000.02,0000.22,0000.37,0000.01,-000.25,17.7,23.9,07.7,05.3,0668.3,31.0
2021-06-09T07:52:00Z,00000200,00000000,0000.91,0000.42,0000.29,-000.24,0000.00,0000.33,0000.29,0000.64,0000.73,17.7,23.9,07.7,05.3,0668.3,31.0
2021-06-09T07:53:00Z,00000200,00000000,0000.92,0000.82,0000.44,-000.65,0000.06,-000.02,0000.40,-000.18,0000.07,17.7,23.9,07.7,05.3,0668.3,31.0
2021-06-09T07:54:00Z,00000200,00000000,0001.19,0000.87,0000.31,0000.01,-000.07,-000.09,0000.19,0000.38,-000.06,17.7,23.9,07.7,05.3,0668.3,31.0
2021-06-09T07:55:00Z,00000200,00000000,0001.74,0000.65,0000.46,0000.03,0000.30,0000.21,0000.01,0000.29,0000.46,17.7,23.9,07.6,05.2,0668.3,31.0
2021-06-09T07:56:00Z,00000200,00000000,0001.56,0000.92,0000.20,-000.16,0000.29,0000.23,0000.32,0000.05,0000.07,17.7,23.9,07.6,05.2,0668.3,30.9
2021-06-09T07:57:00Z,00000200,40000000,,,,,,,-000.11,0000.27,0000.29,17.7,24.0,07.7,05.2,0668.3,31.0
2021-06-09T07:58:00Z,00000200,60000000,,,,,,,0000.38,-000.15,-000.55,17.5,24.0,07.8,05.2,0667.3,31.0
2021-06-09T07:59:00Z,00000200,20000000,,,,,,,0000.07,0000.41,0000.59,17.5,24.1,07.8,05.2,0667.3,31.0
